Time,TemperatureF,DewpointF,PressureIn,WindDirection,WindDirectionDegrees,WindSpeedMPH,WindSpeedGustMPH,Humidity,HourlyPrecipIn,Conditions,Clouds,dailyrainin,SoftwareType,DateUTC
2014-03-22 02:22:00,29.0,26.0,30.31,South,175,2.0,2.0,88,-99.99,,,-99.99,,2014-03-22 09:22:00,
2014-03-22 03:23:00,28.0,25.0,30.32,South,175,0.0,1.0,88,-99.99,,,-99.99,,2014-03-22 10:23:00,
2014-03-22 03:42:00,28.0,26.0,30.32,SW,232,1.0,1.0,92,-99.99,,,-99.99,,2014-03-22 10:42:00,
2014-03-22 04:21:00,28.0,27.0,30.32,South,177,2.0,3.0,93,-99.99,,,-99.99,,2014-03-22 11:21:00,
2014-03-22 05:22:00,27.0,25.0,30.33,SSE,149,1.0,1.0,93,-99.99,,,-99.99,,2014-03-22 12:22:00,
2014-03-22 05:52:00,27.0,25.0,30.33,WNW,300,1.0,1.0,94,-99.99,,,-99.99,,2014-03-22 12:52:00,
2014-03-22 06:11:00,26.0,25.0,30.33,WSW,243,1.0,1.0,94,-99.99,,,-99.99,,2014-03-22 13:11:00,
2014-03-22 06:22:00,26.0,25.0,30.34,WSW,258,1.0,1.0,95,-99.99,,,-99.99,,2014-03-22 13:22:00,
2014-03-22 07:21:00,26.0,25.0,30.35,North,-999,0.0,0.0,95,-99.99,,,-99.99,,2014-03-22 14:21:00,
2014-03-22 08:22:00,27.0,26.0,30.36,SE,127,1.0,1.0,96,-99.99,,,-99.99,,2014-03-22 15:22:00,
2014-03-22 09:23:00,32.0,28.0,30.36,ESE,102,2.0,2.0,81,-99.99,,,-99.99,,2014-03-22 16:23:00,
2014-03-22 10:23:00,38.0,27.0,30.35,ENE,78,1.0,2.0,64,-99.99,,,-99.99,,2014-03-22 17:23:00,
2014-03-22 11:22:00,45.0,27.0,30.34,NE,35,1.0,2.0,50,-99.99,,,-99.99,,2014-03-22 18:22:00,
2014-03-22 12:21:00,47.0,27.0,30.32,WNW,302,4.0,6.0,46,-99.99,,,-99.99,,2014-03-22 19:21:00,
2014-03-22 14:42:00,62.0,20.0,30.26,NNE,17,3.0,7.0,20,-99.99,,,-99.99,,2014-03-22 21:42:00,
2014-03-22 15:23:00,63.0,18.0,30.24,NNE,21,2.0,5.0,17,-99.99,,,-99.99,,2014-03-22 22:23:00,
2014-03-22 17:21:00,64.0,20.0,30.19,ESE,123,1.0,2.0,18,-99.99,,,-99.99,,2014-03-23 00:21:00,
2014-03-22 18:22:00,63.0,21.0,30.17,SW,230,3.0,4.0,19,-99.99,,,-99.99,,2014-03-23 01:22:00,
2014-03-22 18:41:00,61.0,22.0,30.17,WNW,293,3.0,5.0,22,-99.99,,,-99.99,,2014-03-23 01:41:00,
2014-03-22 19:22:00,59.0,25.0,30.16,West,281,5.0,9.0,27,-99.99,,,-99.99,,2014-03-23 02:22:00,
2014-03-22 20:21:00,53.0,28.0,30.17,SW,219,2.0,5.0,36,-99.99,,,-99.99,,2014-03-23 03:21:00,
2014-03-22 21:02:00,-999.0,-99.9,30.18,WSW,252,4.0,8.0,-999,-99.99,,,-99.99,,2014-03-23 04:02:00,
2014-03-22 21:23:00,51.0,28.0,30.18,SW,221,3.0,7.0,40,-99.99,,,-99.99,,2014-03-23 04:23:00,
2014-03-22 22:22:00,45.0,31.0,30.20,SSE,159,2.0,3.0,58,-99.99,,,-99.99,,2014-03-23 05:22:00,
2014-03-22 22:43:00,44.0,31.0,30.20,SSE,148,2.0,3.0,59,-99.99,,,-99.99,,2014-03-23 05:43:00,
2014-03-22 23:42:00,39.0,30.0,30.21,ENE,63,1.0,3.0,70,-99.99,,,-99.99,,2014-03-23 06:42:00,